| time (UTC) | temp F | wind direction | speed knots | gust knots | rain 1hr in | rain 24hr in | rain mn in | humidity % | barometer mb |
| 20260506232527 | 77 | 180 | 6.1 | 12.2 | 0.00 | 0.00 | 0.00 | 47 | 1016.0 |
| 20260506232023 | 77 | 227 | 7.0 | 12.2 | 0.00 | 0.00 | 0.00 | 46 | 1015.9 |
| 20260506231540 | 77 | 247 | 6.1 | 10.4 | 0.00 | 0.00 | 0.00 | 45 | 1015.9 |
| 20260506231023 | 77 | 239 | 7.0 | 10.4 | 0.00 | 0.00 | 0.00 | 45 | 1015.9 |
| 20260506230524 | 77 | 258 | 4.3 | 12.2 | 0.00 | 0.00 | 0.00 | 47 | 1015.9 |
| 20260506230043 | 77 | 242 | 7.0 | 12.2 | 0.00 | 0.00 | 0.00 | 45 | 1016.0 |
| 20260506225523 | 77 | 256 | 7.8 | 12.2 | 0.00 | 0.00 | 0.00 | 45 | 1016.1 |
| 20260506225024 | 77 | 244 | 5.2 | 12.2 | 0.00 | 0.00 | 0.00 | 46 | 1016.1 |
| 20260506224554 | 77 | 221 | 7.8 | 12.2 | 0.00 | 0.00 | 0.00 | 46 | 1016.1 |
| 20260506224024 | 77 | 279 | 5.2 | 10.4 | 0.00 | 0.00 | 0.00 | 46 | 1016.2 |
| 20260506223523 | 77 | 186 | 6.1 | 11.3 | 0.00 | 0.00 | 0.00 | 46 | 1016.3 |
| 20260506223038 | 77 | 234 | 7.8 | 11.3 | 0.00 | 0.00 | 0.00 | 47 | 1016.3 |
| 20260506222526 | 77 | 290 | 5.2 | 11.3 | 0.00 | 0.00 | 0.00 | 46 | 1016.4 |
| 20260506222024 | 77 | 227 | 6.1 | 11.3 | 0.00 | 0.00 | 0.00 | 46 | 1016.5 |
| 20260506221539 | 77 | 221 | 7.8 | 11.3 | 0.00 | 0.00 | 0.00 | 46 | 1016.4 |
| 20260506221027 | 77 | 230 | 7.0 | 11.3 | 0.00 | 0.00 | 0.00 | 47 | 1016.5 |
| 20260506220524 | 77 | 256 | 7.0 | 11.3 | 0.00 | 0.00 | 0.00 | 46 | 1016.5 |
| 20260506220038 | 78 | 251 | 5.2 | 11.3 | 0.00 | 0.00 | 0.00 | 45 | 1016.7 |
| 20260506215523 | 78 | 252 | 7.0 | 9.6 | 0.00 | 0.00 | 0.00 | 45 | 1016.8 |
| 20260506215023 | 78 | 254 | 2.6 | 8.7 | 0.00 | 0.00 | 0.00 | 45 | 1016.8 |
| 20260506214542 | 77 | 215 | 4.3 | 9.6 | 0.00 | 0.00 | 0.00 | 46 | 1016.8 |
| 20260506214023 | 78 | 237 | 2.6 | 9.6 | 0.00 | 0.00 | 0.00 | 45 | 1016.9 |
| 20260506213523 | 78 | 203 | 0.9 | 9.6 | 0.00 | 0.00 | 0.00 | 44 | 1016.9 |
| 20260506213044 | 78 | 285 | 6.1 | 9.6 | 0.00 | 0.00 | 0.00 | 45 | 1017.0 |
| 20260506212523 | 78 | 253 | 3.5 | 8.7 | 0.00 | 0.00 | 0.00 | 44 | 1016.9 |
| 20260506212027 | 78 | 298 | 4.3 | 7.8 | 0.00 | 0.00 | 0.00 | 45 | 1016.8 |
| 20260506211540 | 78 | 244 | 3.5 | 7.8 | 0.00 | 0.00 | 0.00 | 45 | 1016.9 |
| 20260506211027 | 78 | 275 | 0.0 | 7.8 | 0.00 | 0.00 | 0.00 | 39 | 1017.0 |
| 20260506210527 | 78 | 280 | 4.3 | 7.8 | 0.00 | 0.00 | 0.00 | 39 | 1017.0 |
| 20260506210040 | 78 | 294 | 3.5 | 7.8 | 0.00 | 0.00 | 0.00 | 39 | 1017.1 |
| 20260506205523 | 78 | 0 | 0.0 | 4.3 | 0.00 | 0.00 | 0.00 | 41 | 1017.2 |
| 20260506205024 | 77 | 0 | 1.7 | 7.0 | 0.00 | 0.00 | 0.00 | 40 | 1017.2 |
| 20260506204538 | 78 | 47 | 2.6 | 8.7 | 0.00 | 0.00 | 0.00 | 40 | 1017.3 |
| 20260506204026 | 78 | 344 | 3.5 | 9.6 | 0.00 | 0.00 | 0.00 | 39 | 1017.2 |
| 20260506203526 | 78 | 250 | 3.5 | 9.6 | 0.00 | 0.00 | 0.00 | 41 | 1017.2 |
| 20260506203040 | 78 | 305 | 4.3 | 8.7 | 0.00 | 0.00 | 0.00 | 40 | 1017.3 |
| 20260506202526 | 77 | 313 | 5.2 | 9.6 | 0.00 | 0.00 | 0.00 | 44 | 1017.3 |
| 20260506202024 | 76 | 0 | 1.7 | 9.6 | 0.00 | 0.00 | 0.00 | 41 | 1017.3 |
| 20260506201538 | 77 | 344 | 2.6 | 9.6 | 0.00 | 0.00 | 0.00 | 42 | 1017.3 |
| 20260506201025 | 77 | 295 | 6.1 | 9.6 | 0.00 | 0.00 | 0.00 | 43 | 1017.4 |
| 20260506200527 | 75 | 314 | 0.9 | 8.7 | 0.00 | 0.00 | 0.00 | 44 | 1017.5 |
| 20260506200037 | 76 | 291 | 2.6 | 9.6 | 0.00 | 0.00 | 0.00 | 44 | 1017.7 |
| 20260506195523 | 75 | 30 | 1.7 | 9.6 | 0.00 | 0.00 | 0.00 | 44 | 1017.5 |
| 20260506195027 | 76 | 349 | 3.5 | 9.6 | 0.00 | 0.00 | 0.00 | 43 | 1017.5 |
| 20260506194556 | 75 | 0 | 0.9 | 7.8 | 0.00 | 0.00 | 0.00 | 45 | 1017.6 |
| 20260506194022 | 76 | 314 | 2.6 | 7.8 | 0.00 | 0.00 | 0.00 | 44 | 1017.7 |
| 20260506193523 | 75 | 26 | 1.7 | 7.8 | 0.00 | 0.00 | 0.00 | 45 | 1017.8 |
| 20260506193039 | 75 | 135 | 3.5 | 8.7 | 0.00 | 0.00 | 0.00 | 46 | 1017.7 |
| 20260506192527 | 75 | 128 | 4.3 | 8.7 | 0.00 | 0.00 | 0.00 | 45 | 1017.8 |
| 20260506192026 | 74 | 323 | 1.7 | 7.8 | 0.00 | 0.00 | 0.00 | 47 | 1017.8 |
| 20260506191539 | 74 | 30 | 3.5 | 8.7 | 0.00 | 0.00 | 0.00 | 47 | 1017.9 |
| 20260506191026 | 74 | 12 | 0.9 | 8.7 | 0.00 | 0.00 | 0.00 | 47 | 1018.0 |
| 20260506190530 | 74 | 25 | 3.5 | 8.7 | 0.00 | 0.00 | 0.00 | 47 | 1018.1 |
| 20260506190039 | 73 | 51 | 0.9 | 9.6 | 0.00 | 0.00 | 0.00 | 49 | 1018.1 |
| 20260506185526 | 74 | 38 | 3.5 | 9.6 | 0.00 | 0.00 | 0.00 | 48 | 1018.3 |
| 20260506185026 | 74 | 16 | 4.3 | 9.6 | 0.00 | 0.00 | 0.00 | 49 | 1018.4 |
| 20260506184543 | 74 | 5 | 4.3 | 9.6 | 0.00 | 0.00 | 0.00 | 48 | 1018.4 |
| 20260506184026 | 72 | 24 | 2.6 | 7.8 | 0.00 | 0.00 | 0.00 | 48 | 1018.4 |
| 20260506183526 | 72 | 329 | 0.9 | 9.6 | 0.00 | 0.00 | 0.00 | 51 | 1018.4 |
| 20260506183039 | 71 | 16 | 2.6 | 9.6 | 0.00 | 0.00 | 0.00 | 52 | 1018.5 |
| 20260506182525 | 71 | 302 | 5.2 | 9.6 | 0.00 | 0.00 | 0.00 | 52 | 1018.5 |
| 20260506182026 | 70 | 315 | 1.7 | 4.3 | 0.00 | 0.00 | 0.00 | 55 | 1018.6 |
| 20260506181544 | 68 | 0 | 0.0 | 4.3 | 0.00 | 0.00 | 0.00 | 57 | 1018.7 |
| 20260506181027 | 69 | 209 | 0.9 | 7.8 | 0.00 | 0.00 | 0.00 | 57 | 1018.8 |
| 20260506180529 | 69 | 344 | 3.5 | 7.8 | 0.00 | 0.00 | 0.00 | 56 | 1018.8 |
| 20260506180043 | 70 | 350 | 2.6 | 8.7 | 0.00 | 0.00 | 0.00 | 57 | 1018.8 |
| 20260506175527 | 68 | 15 | 4.3 | 8.7 | 0.00 | 0.00 | 0.00 | 60 | 1018.8 |
| 20260506175025 | 67 | 5 | 3.5 | 9.6 | 0.00 | 0.00 | 0.00 | 61 | 1018.9 |
| 20260506174539 | 67 | 19 | 3.5 | 9.6 | 0.00 | 0.00 | 0.00 | 60 | 1018.9 |
| 20260506174027 | 67 | 47 | 5.2 | 9.6 | 0.00 | 0.00 | 0.00 | 62 | 1019.0 |
| 20260506173527 | 66 | 341 | 2.6 | 7.8 | 0.00 | 0.00 | 0.00 | 63 | 1018.9 |
| 20260506173041 | 66 | 311 | 1.7 | 7.8 | 0.00 | 0.00 | 0.00 | 63 | 1018.9 |
| 20260506172527 | 66 | 331 | 3.5 | 7.8 | 0.00 | 0.00 | 0.00 | 64 | 1018.9 |
| 20260506172027 | 65 | 27 | 3.5 | 8.7 | 0.00 | 0.00 | 0.00 | 65 | 1018.9 |
| 20260506171553 | 65 | 326 | 3.5 | 8.7 | 0.00 | 0.00 | 0.00 | 66 | 1018.9 |
| 20260506171027 | 64 | 29 | 4.3 | 8.7 | 0.00 | 0.00 | 0.00 | 66 | 1018.9 |
| 20260506170525 | 62 | 302 | 1.7 | 7.8 | 0.00 | 0.00 | 0.00 | 69 | 1019.1 |
| 20260506170043 | 62 | 269 | 1.7 | 7.0 | 0.00 | 0.00 | 0.00 | 68 | 1019.1 |
| 20260506165527 | 62 | 323 | 1.7 | 7.0 | 0.00 | 0.00 | 0.00 | 71 | 1019.1 |
| 20260506165027 | 61 | 209 | 2.6 | 7.0 | 0.00 | 0.00 | 0.00 | 71 | 1019.2 |
| 20260506164540 | 60 | 299 | 3.5 | 7.8 | 0.00 | 0.00 | 0.00 | 71 | 1019.3 |
| 20260506164027 | 60 | 291 | 2.6 | 7.8 | 0.00 | 0.00 | 0.00 | 73 | 1019.3 |
| 20260506163526 | 59 | 289 | 4.3 | 7.8 | 0.00 | 0.00 | 0.00 | 74 | 1019.4 |
| 20260506163043 | 59 | 294 | 2.6 | 7.8 | 0.00 | 0.00 | 0.00 | 74 | 1019.5 |
| 20260506162524 | 58 | 305 | 3.5 | 7.8 | 0.00 | 0.00 | 0.00 | 76 | 1019.5 |
| 20260506162025 | 58 | 322 | 3.5 | 7.0 | 0.00 | 0.00 | 0.00 | 78 | 1019.5 |
| 20260506161538 | 57 | 342 | 1.7 | 4.3 | 0.00 | 0.00 | 0.00 | 79 | 1019.6 |
| 20260506161024 | 56 | 5 | 1.7 | 3.5 | 0.00 | 0.00 | 0.00 | 81 | 1019.8 |
| 20260506160523 | 54 | 360 | 0.9 | 3.5 | 0.00 | 0.00 | 0.00 | 83 | 1019.8 |
| 20260506160039 | 54 | 0 | 0.9 | 3.5 | 0.00 | 0.00 | 0.00 | 85 | 1019.8 |
| 20260506155523 | 53 | 331 | 0.9 | 3.5 | 0.00 | 0.00 | 0.00 | 85 | 1019.9 |
| 20260506155028 | 52 | 0 | 0.0 | 3.5 | 0.00 | 0.00 | 0.00 | 86 | 1020.0 |
| 20260506154601 | 52 | 348 | 0.9 | 3.5 | 0.00 | 0.00 | 0.00 | 88 | 1020.0 |
| 20260506154025 | 51 | 0 | 0.0 | 0.9 | 0.00 | 0.00 | 0.00 | 89 | 1020.0 |
| 20260506153523 | 50 | 0 | 0.0 | 0.9 | 0.00 | 0.00 | 0.00 | 89 | 1020.0 |
| 20260506153041 | 50 | 0 | 0.0 | 1.7 | 0.00 | 0.00 | 0.00 | 89 | 1020.0 |
| 20260506152524 | 49 | 0 | 0.0 | 1.7 | 0.00 | 0.00 | 0.00 | 90 | 1020.0 |
| 20260506152027 | 49 | 0 | 0.0 | 1.7 | 0.00 | 0.00 | 0.00 | 90 | 1019.9 |
| 20260506151540 | 49 | 321 | 0.0 | 1.7 | 0.00 | 0.00 | 0.00 | 90 | 1020.0 |
| 20260506151028 | 49 | 298 | 0.0 | 0.9 | 0.00 | 0.00 | 0.00 | 90 | 1020.0 |
| 20260506150524 | 49 | 0 | 0.0 | 0.9 | 0.00 | 0.00 | 0.00 | 90 | 1020.0 |
| 20260506150039 | 48 | 0 | 0.0 | 1.7 | 0.00 | 0.00 | 0.00 | 90 | 1020.1 |
| 20260506145531 | 48 | 0 | 0.0 | 1.7 | 0.00 | 0.00 | 0.00 | 90 | 1020.0 |
| 20260506145025 | 48 | 298 | 0.0 | 1.7 | 0.00 | 0.00 | 0.00 | 90 | 1020.0 |
| 20260506144546 | 48 | 296 | 0.9 | 1.7 | 0.00 | 0.00 | 0.00 | 89 | 1020.0 |
| 20260506144023 | 48 | 0 | 0.0 | 1.7 | 0.00 | 0.00 | 0.00 | 90 | 1020.0 |
| 20260506143525 | 48 | 0 | 0.0 | 0.0 | 0.00 | 0.00 | 0.00 | 89 | 1019.8 |
| 20260506143038 | 47 | 0 | 0.0 | 0.0 | 0.00 | 0.00 | 0.00 | 89 | 1019.8 |
| 20260506142526 | 47 | 0 | 0.0 | 0.0 | 0.00 | 0.00 | 0.00 | 89 | 1019.6 |
| 20260506142026 | 47 | 0 | 0.0 | 0.0 | 0.00 | 0.00 | 0.00 | 89 | 1019.8 |
| 20260506141539 | 46 | 0 | 0.0 | 0.0 | 0.00 | 0.00 | 0.00 | 89 | 1019.6 |
| 20260506141027 | 46 | 0 | 0.0 | 0.0 | 0.00 | 0.00 | 0.00 | 90 | 1019.6 |
| 20260506140525 | 46 | 0 | 0.0 | 0.0 | 0.00 | 0.00 | 0.00 | 90 | 1019.6 |
| 20260506140054 | 46 | 0 | 0.0 | 0.0 | 0.00 | 0.00 | 0.00 | 90 | 1019.6 |
| 20260506135525 | 46 | 0 | 0.0 | 0.0 | 0.00 | 0.00 | 0.00 | 90 | 1019.5 |
| 20260506135026 | 46 | 0 | 0.0 | 0.0 | 0.00 | 0.00 | 0.00 | 90 | 1019.5 |
| 20260506134539 | 45 | 0 | 0.0 | 0.0 | 0.00 | 0.00 | 0.00 | 90 | 1019.3 |
| 20260506134024 | 45 | 0 | 0.0 | 0.0 | 0.00 | 0.00 | 0.00 | 91 | 1019.3 |
| 20260506133527 | 45 | 0 | 0.0 | 0.0 | 0.00 | 0.00 | 0.00 | 91 | 1019.3 |
| 20260506133045 | 45 | 0 | 0.0 | 0.0 | 0.00 | 0.00 | 0.00 | 90 | 1019.2 |
| 20260506132523 | 45 | 0 | 0.0 | 0.0 | 0.00 | 0.00 | 0.00 | 91 | 1019.2 |
| 20260506132025 | 45 | 0 | 0.0 | 0.0 | 0.00 | 0.00 | 0.00 | 91 | 1019.0 |
| 20260506131538 | 44 | 0 | 0.0 | 0.0 | 0.00 | 0.00 | 0.00 | 91 | 1019.1 |
| 20260506131023 | 44 | 0 | 0.0 | 0.0 | 0.00 | 0.00 | 0.00 | 91 | 1019.1 |
| 20260506130528 | 44 | 0 | 0.0 | 0.0 | 0.00 | 0.00 | 0.00 | 91 | 1018.9 |
| 20260506130037 | 44 | 0 | 0.0 | 0.0 | 0.00 | 0.00 | 0.00 | 91 | 1019.0 |
| 20260506125527 | 44 | 0 | 0.0 | 0.0 | 0.00 | 0.00 | 0.00 | 91 | 1018.9 |
| 20260506125026 | 44 | 0 | 0.0 | 0.0 | 0.00 | 0.00 | 0.00 | 91 | 1018.9 |
| 20260506124541 | 44 | 0 | 0.0 | 0.0 | 0.00 | 0.00 | 0.00 | 91 | 1018.8 |
| 20260506124026 | 44 | 0 | 0.0 | 0.0 | 0.00 | 0.00 | 0.00 | 91 | 1018.9 |
| 20260506123525 | 44 | 0 | 0.0 | 0.0 | 0.00 | 0.00 | 0.00 | 91 | 1018.9 |
| 20260506123041 | 44 | 0 | 0.0 | 0.0 | 0.00 | 0.00 | 0.00 | 91 | 1018.9 |
| 20260506122526 | 44 | 0 | 0.0 | 0.0 | 0.00 | 0.00 | 0.00 | 91 | 1018.8 |
| 20260506122023 | 44 | 0 | 0.0 | 0.0 | 0.00 | 0.00 | 0.00 | 90 | 1018.8 |
| 20260506121540 | 44 | 0 | 0.0 | 0.0 | 0.00 | 0.00 | 0.00 | 90 | 1018.6 |
| 20260506121028 | 44 | 0 | 0.0 | 0.0 | 0.00 | 0.00 | 0.00 | 90 | 1018.6 |
| 20260506120527 | 44 | 0 | 0.0 | 0.0 | 0.00 | 0.00 | 0.00 | 90 | 1018.6 |
| 20260506120040 | 44 | 0 | 0.0 | 0.0 | 0.00 | 0.00 | 0.00 | 90 | 1018.6 |
| 20260506115524 | 44 | 0 | 0.0 | 0.0 | 0.00 | 0.00 | 0.00 | 90 | 1018.5 |
| 20260506115023 | 44 | 0 | 0.0 | 0.0 | 0.00 | 0.00 | 0.00 | 90 | 1018.5 |
| 20260506114540 | 44 | 0 | 0.0 | 0.0 | 0.00 | 0.00 | 0.00 | 90 | 1018.5 |
| 20260506114030 | 44 | 0 | 0.0 | 0.0 | 0.00 | 0.00 | 0.00 | 90 | 1018.5 |
| 20260506113527 | 44 | 0 | 0.0 | 0.0 | 0.00 | 0.00 | 0.00 | 90 | 1018.5 |
| 20260506113047 | 44 | 0 | 0.0 | 1.7 | 0.00 | 0.00 | 0.00 | 90 | 1018.5 |
| 20260506112524 | 44 | 0 | 0.0 | 1.7 | 0.00 | 0.00 | 0.00 | 90 | 1018.5 |
| 20260506112028 | 44 | 114 | 0.0 | 1.7 | 0.00 | 0.00 | 0.00 | 90 | 1018.6 |
| 20260506111539 | 44 | 0 | 0.0 | 0.9 | 0.00 | 0.00 | 0.00 | 90 | 1018.6 |
| 20260506111025 | 44 | 0 | 0.0 | 0.0 | 0.00 | 0.00 | 0.00 | 90 | 1018.5 |
| 20260506110526 | 44 | 0 | 0.0 | 0.9 | 0.00 | 0.00 | 0.00 | 90 | 1018.6 |
| 20260506110039 | 44 | 0 | 0.0 | 0.9 | 0.00 | 0.00 | 0.00 | 90 | 1018.6 |
| 20260506105525 | 44 | 0 | 0.0 | 0.9 | 0.00 | 0.00 | 0.00 | 90 | 1018.5 |
| 20260506105026 | 44 | 0 | 0.0 | 0.9 | 0.00 | 0.00 | 0.00 | 89 | 1018.5 |
| 20260506104545 | 45 | 0 | 0.0 | 0.9 | 0.00 | 0.00 | 0.00 | 90 | 1018.5 |
| 20260506104024 | 44 | 0 | 0.0 | 0.9 | 0.00 | 0.00 | 0.00 | 90 | 1018.5 |
| 20260506103524 | 44 | 0 | 0.0 | 0.0 | 0.00 | 0.00 | 0.00 | 90 | 1018.5 |
| 20260506103041 | 45 | 0 | 0.0 | 1.7 | 0.00 | 0.00 | 0.00 | 89 | 1018.5 |
| 20260506102523 | 45 | 0 | 0.0 | 1.7 | 0.00 | 0.00 | 0.00 | 89 | 1018.6 |
| 20260506102028 | 45 | 0 | 0.0 | 0.0 | 0.00 | 0.00 | 0.00 | 89 | 1018.6 |
| 20260506101548 | 45 | 0 | 0.0 | 0.0 | 0.00 | 0.00 | 0.00 | 89 | 1018.6 |
| 20260506101026 | 45 | 0 | 0.0 | 0.0 | 0.00 | 0.00 | 0.00 | 89 | 1018.6 |
| 20260506100526 | 45 | 0 | 0.0 | 0.0 | 0.00 | 0.00 | 0.00 | 89 | 1018.6 |
| 20260506100040 | 45 | 0 | 0.0 | 0.0 | 0.00 | 0.00 | 0.00 | 89 | 1018.5 |
| 20260506095526 | 45 | 0 | 0.0 | 0.0 | 0.00 | 0.00 | 0.00 | 89 | 1018.5 |
| 20260506095027 | 45 | 0 | 0.0 | 0.0 | 0.00 | 0.00 | 0.00 | 89 | 1018.6 |
| 20260506094540 | 46 | 0 | 0.0 | 0.0 | 0.00 | 0.00 | 0.00 | 89 | 1018.5 |
| 20260506094026 | 46 | 0 | 0.0 | 0.0 | 0.00 | 0.00 | 0.00 | 89 | 1018.5 |
| 20260506093526 | 45 | 0 | 0.0 | 0.0 | 0.00 | 0.00 | 0.00 | 89 | 1018.5 |
| 20260506093038 | 45 | 0 | 0.0 | 0.0 | 0.00 | 0.00 | 0.00 | 89 | 1018.5 |
| 20260506092528 | 46 | 0 | 0.0 | 1.7 | 0.00 | 0.00 | 0.00 | 89 | 1018.5 |
| 20260506092026 | 46 | 0 | 0.0 | 2.6 | 0.00 | 0.00 | 0.00 | 89 | 1018.4 |
| 20260506091538 | 46 | 0 | 0.0 | 2.6 | 0.00 | 0.00 | 0.00 | 89 | 1018.3 |
| 20260506091026 | 46 | 104 | 0.9 | 2.6 | 0.00 | 0.00 | 0.00 | 89 | 1018.4 |
| 20260506090529 | 46 | 0 | 0.0 | 2.6 | 0.00 | 0.00 | 0.00 | 89 | 1018.4 |
| 20260506090037 | 46 | 0 | 0.0 | 1.7 | 0.00 | 0.00 | 0.00 | 89 | 1018.3 |
| 20260506085526 | 46 | 91 | 0.0 | 0.0 | 0.00 | 0.00 | 0.00 | 89 | 1018.3 |
| 20260506085027 | 46 | 0 | 0.0 | 0.0 | 0.00 | 0.00 | 0.00 | 89 | 1018.2 |
| 20260506084543 | 46 | 0 | 0.0 | 0.9 | 0.00 | 0.00 | 0.00 | 89 | 1018.4 |
| 20260506084026 | 46 | 0 | 0.0 | 0.9 | 0.00 | 0.00 | 0.00 | 89 | 1018.3 |
| 20260506083525 | 46 | 109 | 0.0 | 0.9 | 0.00 | 0.00 | 0.00 | 89 | 1018.3 |
| 20260506083041 | 46 | 0 | 0.0 | 1.7 | 0.00 | 0.00 | 0.00 | 89 | 1018.4 |
| 20260506082525 | 46 | 0 | 0.0 | 1.7 | 0.00 | 0.00 | 0.00 | 89 | 1018.4 |
| 20260506082026 | 46 | 117 | 0.0 | 1.7 | 0.00 | 0.00 | 0.00 | 89 | 1018.3 |
| 20260506081538 | 46 | 0 | 0.0 | 0.0 | 0.00 | 0.00 | 0.00 | 89 | 1018.3 |
| 20260506081030 | 47 | 0 | 0.0 | 0.0 | 0.00 | 0.00 | 0.00 | 89 | 1018.3 |
| 20260506080528 | 47 | 0 | 0.0 | 0.0 | 0.00 | 0.00 | 0.00 | 88 | 1018.3 |
| 20260506073526 | 47 | 0 | 0.0 | 0.0 | 0.00 | 0.00 | 0.00 | 88 | 1018.1 |
| 20260506073039 | 47 | 0 | 0.0 | 0.0 | 0.00 | 0.00 | 0.00 | 88 | 1018.1 |
| 20260506072525 | 48 | 0 | 0.0 | 0.0 | 0.00 | 0.00 | 0.00 | 88 | 1018.1 |
| 20260506072026 | 48 | 0 | 0.0 | 0.0 | 0.00 | 0.00 | 0.00 | 88 | 1018.1 |
| 20260506071542 | 48 | 0 | 0.0 | 0.0 | 0.00 | 0.00 | 0.00 | 88 | 1018.1 |
| 20260506071028 | 48 | 0 | 0.0 | 0.0 | 0.00 | 0.00 | 0.00 | 88 | 1017.9 |
| 20260506070526 | 48 | 0 | 0.0 | 0.0 | 0.00 | 0.00 | 0.00 | 88 | 1017.8 |
| 20260506062025 | 49 | 0 | 0.0 | 0.0 | 0.00 | 0.00 | 0.00 | 86 | 1017.3 |
| 20260506061538 | 50 | 0 | 0.0 | 0.0 | 0.00 | 0.00 | 0.00 | 86 | 1017.3 |
| 20260506061026 | 50 | 0 | 0.0 | 0.0 | 0.00 | 0.00 | 0.00 | 86 | 1017.3 |
| 20260506060526 | 50 | 0 | 0.0 | 0.0 | 0.00 | 0.00 | 0.00 | 86 | 1017.3 |
| 20260506051024 | 51 | 0 | 0.0 | 0.0 | 0.00 | 0.00 | 0.00 | 85 | 1017.0 |
| 20260506050528 | 51 | 0 | 0.0 | 0.0 | 0.00 | 0.00 | 0.00 | 85 | 1017.0 |
| 20260506045026 | 51 | 0 | 0.0 | 1.7 | 0.00 | 0.00 | 0.00 | 83 | 1016.8 |
| 20260506044539 | 51 | 0 | 0.0 | 1.7 | 0.00 | 0.00 | 0.00 | 83 | 1016.8 |
| 20260506044025 | 52 | 0 | 0.0 | 1.7 | 0.00 | 0.00 | 0.00 | 81 | 1016.7 |
| 20260506043528 | 52 | 0 | 0.0 | 2.6 | 0.00 | 0.00 | 0.00 | 83 | 1016.5 |
| 20260506043038 | 52 | 0 | 0.0 | 2.6 | 0.00 | 0.00 | 0.00 | 83 | 1016.6 |
| 20260506042526 | 52 | 117 | 0.9 | 2.6 | 0.00 | 0.00 | 0.00 | 83 | 1016.4 |
| 20260506042025 | 52 | 126 | 0.0 | 1.7 | 0.00 | 0.00 | 0.00 | 83 | 1016.4 |
| 20260506041542 | 52 | 0 | 0.0 | 0.9 | 0.00 | 0.00 | 0.00 | 82 | 1016.3 |
| 20260506041025 | 53 | 0 | 0.0 | 1.7 | 0.00 | 0.00 | 0.00 | 81 | 1016.2 |
| 20260506040526 | 53 | 0 | 0.0 | 2.6 | 0.00 | 0.00 | 0.00 | 80 | 1016.2 |
| 20260506040042 | 54 | 114 | 0.9 | 2.6 | 0.00 | 0.00 | 0.00 | 79 | 1016.1 |
| 20260506035525 | 54 | 126 | 0.9 | 2.6 | 0.00 | 0.00 | 0.00 | 79 | 1016.0 |
| 20260506035026 | 54 | 109 | 0.9 | 2.6 | 0.00 | 0.00 | 0.00 | 78 | 1016.0 |
| 20260506034538 | 54 | 105 | 0.0 | 1.7 | 0.00 | 0.00 | 0.00 | 77 | 1015.9 |
| 20260506034026 | 55 | 0 | 0.0 | 0.0 | 0.00 | 0.00 | 0.00 | 76 | 1015.8 |
| 20260506033524 | 56 | 0 | 0.0 | 0.0 | 0.00 | 0.00 | 0.00 | 75 | 1015.7 |
| 20260506033041 | 57 | 0 | 0.0 | 0.0 | 0.00 | 0.00 | 0.00 | 73 | 1015.7 |
| 20260506032525 | 57 | 0 | 0.0 | 1.7 | 0.00 | 0.00 | 0.00 | 73 | 1015.7 |
| 20260506032024 | 57 | 0 | 0.0 | 1.7 | 0.00 | 0.00 | 0.00 | 73 | 1015.6 |
| 20260506031538 | 57 | 0 | 0.0 | 1.7 | 0.00 | 0.00 | 0.00 | 72 | 1015.4 |
| 20260506031024 | 57 | 0 | 0.0 | 3.5 | 0.00 | 0.00 | 0.00 | 72 | 1015.3 |
| 20260506030525 | 58 | 121 | 0.0 | 3.5 | 0.00 | 0.00 | 0.00 | 71 | 1015.2 |
| 20260506030037 | 58 | 175 | 0.0 | 4.3 | 0.00 | 0.00 | 0.00 | 71 | 1015.0 |
| 20260506025524 | 58 | 0 | 0.9 | 4.3 | 0.00 | 0.00 | 0.00 | 71 | 1014.9 |
| 20260506025027 | 58 | 215 | 0.9 | 5.2 | 0.00 | 0.00 | 0.00 | 70 | 1014.9 |
| 20260506024542 | 58 | 180 | 1.7 | 5.2 | 0.00 | 0.00 | 0.00 | 70 | 1014.9 |
| 20260506024027 | 59 | 236 | 0.9 | 3.5 | 0.00 | 0.00 | 0.00 | 69 | 1014.7 |
| 20260506023524 | 59 | 0 | 0.9 | 7.0 | 0.00 | 0.00 | 0.00 | 69 | 1014.7 |
| 20260506023051 | 59 | 0 | 0.9 | 7.0 | 0.00 | 0.00 | 0.00 | 69 | 1014.7 |
| 20260506022524 | 59 | 215 | 1.7 | 7.0 | 0.00 | 0.00 | 0.00 | 68 | 1014.7 |
| 20260506022024 | 59 | 240 | 2.6 | 5.2 | 0.00 | 0.00 | 0.00 | 68 | 1014.6 |
| 20260506021543 | 59 | 213 | 1.7 | 7.0 | 0.00 | 0.00 | 0.00 | 68 | 1014.6 |
| 20260506021028 | 59 | 180 | 1.7 | 7.0 | 0.00 | 0.00 | 0.00 | 68 | 1014.6 |
| 20260506020526 | 60 | 230 | 2.6 | 7.8 | 0.00 | 0.00 | 0.00 | 68 | 1014.5 |
| 20260506020039 | 60 | 212 | 3.5 | 7.8 | 0.00 | 0.00 | 0.00 | 66 | 1014.5 |
| 20260506015525 | 60 | 242 | 1.7 | 10.4 | 0.00 | 0.00 | 0.00 | 66 | 1014.4 |
| 20260506015029 | 60 | 244 | 5.2 | 10.4 | 0.00 | 0.00 | 0.00 | 65 | 1014.4 |
| 20260506014540 | 60 | 246 | 5.2 | 10.4 | 0.00 | 0.00 | 0.00 | 64 | 1014.5 |
| 20260506014024 | 61 | 222 | 4.3 | 10.4 | 0.00 | 0.00 | 0.00 | 64 | 1014.4 |
| 20260506013524 | 61 | 257 | 4.3 | 10.4 | 0.00 | 0.00 | 0.00 | 63 | 1014.5 |
| 20260506013037 | 61 | 232 | 6.1 | 9.6 | 0.00 | 0.00 | 0.00 | 65 | 1014.4 |
| 20260506012524 | 61 | 267 | 5.2 | 9.6 | 0.00 | 0.00 | 0.00 | 64 | 1014.5 |
| 20260506012025 | 61 | 246 | 4.3 | 10.4 | 0.00 | 0.00 | 0.00 | 64 | 1014.5 |
| 20260506011540 | 61 | 220 | 4.3 | 12.2 | 0.00 | 0.00 | 0.00 | 65 | 1014.6 |
| 20260506011025 | 61 | 252 | 5.2 | 12.2 | 0.00 | 0.00 | 0.00 | 64 | 1014.6 |
| 20260506010526 | 61 | 279 | 5.2 | 9.6 | 0.00 | 0.00 | 0.00 | 63 | 1014.5 |
| 20260506010049 | 61 | 267 | 3.5 | 10.4 | 0.00 | 0.00 | 0.00 | 63 | 1014.5 |
| 20260506005524 | 61 | 221 | 5.2 | 10.4 | 0.00 | 0.00 | 0.00 | 62 | 1014.6 |
| 20260506005024 | 62 | 229 | 5.2 | 11.3 | 0.00 | 0.00 | 0.00 | 62 | 1014.6 |
| 20260506004543 | 62 | 221 | 4.3 | 11.3 | 0.00 | 0.00 | 0.00 | 62 | 1014.5 |
| 20260506004025 | 62 | 215 | 6.1 | 11.3 | 0.00 | 0.00 | 0.00 | 62 | 1014.4 |
| 20260506003525 | 62 | 259 | 7.0 | 12.2 | 0.00 | 0.00 | 0.00 | 61 | 1014.5 |
| 20260506003038 | 62 | 242 | 5.2 | 12.2 | 0.00 | 0.00 | 0.00 | 61 | 1014.5 |
| 20260506002523 | 62 | 201 | 7.0 | 11.3 | 0.00 | 0.00 | 0.00 | 62 | 1014.4 |
| 20260506002024 | 63 | 244 | 5.2 | 11.3 | 0.00 | 0.00 | 0.00 | 60 | 1014.4 |
| 20260506001544 | 63 | 243 | 6.1 | 11.3 | 0.00 | 0.00 | 0.00 | 61 | 1014.5 |
| 20260506001024 | 63 | 273 | 6.1 | 13.0 | 0.00 | 0.00 | 0.00 | 61 | 1014.4 |
| 20260506000524 | 63 | 237 | 7.8 | 13.0 | 0.00 | 0.00 | 0.00 | 61 | 1014.6 |
| 20260506000037 | 64 | 192 | 6.1 | 11.3 | 0.00 | 0.00 | 0.00 | 60 | 1014.5 |
| 20260505235526 | 64 | 228 | 7.8 | 11.3 | 0.00 | 0.00 | 0.00 | 60 | 1014.4 |
| 20260505235027 | 64 | 238 | 7.0 | 10.4 | 0.00 | 0.00 | 0.00 | 59 | 1014.4 |
| 20260505234601 | 65 | 227 | 6.1 | 9.6 | 0.00 | 0.00 | 0.00 | 59 | 1014.4 |
| 20260505234026 | 65 | 286 | 4.3 | 9.6 | 0.00 | 0.00 | 0.00 | 59 | 1014.4 |
| 20260505233525 | 65 | 203 | 5.2 | 8.7 | 0.00 | 0.00 | 0.00 | 58 | 1014.4 |
| 20260505233042 | 65 | 188 | 5.2 | 10.4 | 0.00 | 0.00 | 0.00 | 59 | 1014.4 |